[[{"header":{"parameterUnit":"m.s-1","parameterCategory":1,"la1":30.2992,"la2":30.254,"lo1":-89.0895,"lo2":-89.0443,"dy":0.0025,"dx":0.0025,"nx":19,"ny":19,"refTime":"2026-04-18T09:00:00:Z","depth":0,"parameterNumber":2,"parameterNumberName":"U-component_of_WINDS"},"data":[0,0,0,-3.0193,-3.0196,-3.0334,-3.0335,-3.0539,-3.0541,0,0,0,0,0,0,0,0,0,0,0,-3.0171,-3.0173,-3.0193,-3.0197,-3.0334,-3.0335,-3.0539,-3.0541,0,0,0,0,0,0,0,0,0,0,0,-3.017,-3.0172,-3.0175,-3.0197,-3.0334,-3.0335,-3.0538,-3.0424,0,0,0,0,0,0,0,0,0,0,-3.0285,-3.0283,-3.0172,-3.0175,-3.0198,-3.0334,-3.0335,-3.0418,-3.0431,-3.0489,0,-3.0547,0,-3.0548,-3.0557,-3.0558,0,0,0,-3.0183,-3.0273,-3.0293,-3.0175,-3.02,-3.0334,-3.0268,-3.0425,-3.044,-3.0507,-3.055,-3.0556,-3.0551,-3.0558,-3.0559,-3.0944,-3.0946,0,0,-3.0175,-3.0206,-3.0283,-3.0303,-3.0285,-3.0264,-3.0273,-3.0433,-3.0482,-3.055,-3.0561,-3.0554,-3.056,-3.0562,-3.0941,-3.0944,0,0,0,-3.0163,-3.0201,-3.0216,-3.0296,-3.0319,-3.0268,-3.0278,-3.0475,-3.0477,-3.0563,-3.0557,-3.0561,-3.0564,-3.0939,-3.0942,-3.1095,0,0,0,-3.0158,-3.0194,-3.0214,-3.0234,-3.0316,-3.0399,-3.0317,-3.0466,-3.0483,-3.0556,-3.0561,-3.0566,-3.0936,-3.094,-3.1085,-3.1163,0,0,0,-3.0156,-3.0193,-3.0219,-3.0235,-3.0296,-3.0395,-3.0407,-3.0469,-3.0481,-3.0558,-3.0567,-3.0934,-3.094,-3.1076,-3.1148,-3.1274,0,0,0,-3.0162,-3.0353,-3.0222,-3.0432,-3.0295,-3.0488,-3.0405,-3.0548,-3.0632,-3.0562,-3.0936,-3.0942,-3.1073,-3.1139,-3.1264,-3.1387,-3.1441,0,0,-3.042,-3.0385,-3.0506,-3.0393,-3.0618,-3.0465,-3.0711,-3.0759,-3.0737,-3.0876,-3.0885,-3.1088,-3.1147,-3.1272,-3.1725,-3.1768,0,0,0,-3.0598,-3.0685,-3.0738,-3.082,-3.0861,-3.0903,-3.0909,-3.0926,-3.1042,-3.0815,-3.1165,-3.1199,-3.1271,-3.1329,-3.1365,-3.1425,-3.0969,-3.0968,-3.0968,-3.1008,-3.097,-3.1168,-3.1147,-3.1227,-3.1231,-3.1292,-3.1316,-3.1254,-3.1337,-3.138,-3.1659,-3.1727,-3.1754,-3.1818,-3.1439,-3.1439,-3.144,-3.144,-3.1383,-3.1502,-3.1414,-3.1575,-3.1533,-3.1667,-3.1677,-3.1629,-3.1747,-3.1625,-3.1686,-3.1558,-3.1803,-3.1856,-3.1451,-3.1449,-3.1448,-3.1447,-3.1446,-3.165,-3.1701,-3.1718,-3.1832,-3.1923,-3.1893,-3.2011,-3.1967,-3.1927,-3.1988,-3.2028,-3.2025,-3.2019,-3.2009,-3.201,-3.2011,-3.2012,-3.2013,-3.2013,-3.1922,-3.1936,-3.2041,-3.2099,-3.2145,-3.2201,-3.2204,-3.2248,-3.2286,-3.2245,-3.2245,-3.2176,-3.1833,-3.1749,-3.2028,-3.2026,-3.2024,-3.2022,-3.2021,-3.2321,-3.2223,-3.2387,-3.2433,-3.2496,-3.259,-3.2532,-3.2624,-3.2654,-3.2713,-3.2629,-3.2382,-3.2343,-3.2314,-3.2245,-3.2636,-3.2636,-3.2636,-3.2636,-3.2549,-3.2524,-3.268,-3.2757,-3.2827,-3.279,-3.2974,-3.2978,-3.2966,-3.2982,-3.2917,-3.282,-3.2792,-3.277,-3.2731,-3.2666,-3.3156,-3.3156,-3.3157,-3.2793,-3.2773,-3.2939,-3.2927,-3.2972,-3.3012,-3.3184,-3.3275,-3.324,-3.3177,-3.2993,-3.2971,-3.2814,-3.2764,-3.2701,-3.2641,-3.252,0,0]},{"header":{"parameterUnit":"m.s-1","parameterCategory":1,"la1":30.2992,"la2":30.254,"lo1":-89.0895,"lo2":-89.0443,"dy":0.0025,"dx":0.0025,"nx":19,"ny":19,"refTime":"2026-04-18T09:00:00:Z","depth":0,"parameterNumber":3,"parameterNumberName":"V-component_of_WINDS"},"data":[0,0,0,-6.4234,-6.4239,-6.4462,-6.4463,-6.4769,-6.4772,0,0,0,0,0,0,0,0,0,0,0,-6.4186,-6.4189,-6.4234,-6.424,-6.4462,-6.4463,-6.4768,-6.4772,0,0,0,0,0,0,0,0,0,0,0,-6.4185,-6.4188,-6.4191,-6.4241,-6.4462,-6.4463,-6.4767,-6.4591,0,0,0,0,0,0,0,0,0,0,-6.4371,-6.4345,-6.4187,-6.4191,-6.4242,-6.4461,-6.4463,-6.4582,-6.4602,-6.4679,0,-6.4755,0,-6.4769,-6.4794,-6.4795,0,0,0,-6.4226,-6.4328,-6.4373,-6.4192,-6.4244,-6.4461,-6.4358,-6.4593,-6.4616,-6.4705,-6.4759,-6.477,-6.4774,-6.4796,-6.4798,-6.5296,-6.5299,0,0,-6.4214,-6.4234,-6.4357,-6.4388,-6.436,-6.4351,-6.4365,-6.4606,-6.4665,-6.476,-6.4777,-6.4779,-6.4798,-6.4801,-6.5293,-6.5297,0,0,0,-6.4188,-6.4227,-6.4264,-6.4376,-6.4415,-6.4357,-6.4374,-6.4654,-6.4665,-6.478,-6.4783,-6.48,-6.4804,-6.529,-6.5294,-6.5464,0,0,0,-6.418,-6.4211,-6.426,-6.4275,-6.4411,-6.4538,-6.4417,-6.4648,-6.4675,-6.4781,-6.48,-6.4808,-6.5286,-6.5292,-6.5452,-6.5541,0,0,0,-6.4165,-6.4209,-6.4248,-6.4275,-6.4372,-6.4534,-6.4558,-6.4653,-6.4678,-6.4795,-6.4809,-6.5284,-6.5291,-6.5442,-6.5524,-6.5679,0,0,0,-6.4155,-6.4394,-6.4251,-6.4519,-6.4371,-6.4638,-6.4556,-6.4754,-6.4875,-6.4802,-6.5287,-6.5294,-6.5439,-6.5513,-6.5668,-6.5814,-6.5877,0,0,-6.4468,-6.4433,-6.4588,-6.4467,-6.4766,-6.4602,-6.4925,-6.5015,-6.5004,-6.5198,-6.521,-6.5456,-6.5522,-6.5676,-6.6221,-6.6271,0,0,0,-6.4695,-6.4807,-6.4882,-6.5,-6.5076,-6.5148,-6.5186,-6.5218,-6.5383,-6.511,-6.5553,-6.5592,-6.5681,-6.575,-6.5793,-6.5868,-6.5327,-6.5326,-6.5325,-6.5169,-6.5145,-6.5401,-6.5404,-6.5519,-6.5557,-6.5647,-6.5696,-6.5637,-6.5742,-6.58,-6.6134,-6.6215,-6.6247,-6.6326,-6.5874,-6.5875,-6.5876,-6.5876,-6.5626,-6.5781,-6.5698,-6.5917,-6.5889,-6.607,-6.6114,-6.6066,-6.6229,-6.6088,-6.6166,-6.6015,-6.6303,-6.6371,-6.5889,-6.5887,-6.5885,-6.5884,-6.5883,-6.5935,-6.6005,-6.6042,-6.6211,-6.6342,-6.6334,-6.6496,-6.6463,-6.6433,-6.651,-6.6567,-6.6565,-6.6558,-6.6539,-6.6541,-6.6542,-6.6543,-6.6544,-6.6544,-6.6241,-6.6277,-6.6419,-6.652,-6.6591,-6.668,-6.6718,-6.6786,-6.6852,-6.6816,-6.6816,-6.6746,-6.6336,-6.6234,-6.6562,-6.6559,-6.6557,-6.6555,-6.6554,-6.6715,-6.6603,-6.6822,-6.6894,-6.7008,-6.714,-6.7096,-6.7237,-6.7288,-6.7368,-6.7281,-6.6983,-6.6943,-6.6909,-6.6824,-6.7286,-6.7285,-6.7286,-6.7286,-6.6977,-6.6953,-6.717,-6.7287,-6.7396,-6.7379,-6.7624,-6.7655,-6.7669,-6.7698,-6.7626,-6.751,-6.7477,-6.7457,-6.7411,-6.7332,-6.7912,-6.7912,-6.7913,-6.7267,-6.7253,-6.747,-6.7485,-6.7571,-6.7645,-6.7874,-6.8008,-6.7999,-6.7937,-6.772,-6.7694,-6.7507,-6.7447,-6.7382,-6.7312,-6.7165,0,0]}]]